START_TIME,STEP,MOV.,M15,t_acc.,M20,t_acc.
1979-08-03 06:00:42.660 ,0,1,0.,24.0,0.,24.0
1979-08-03 06:01:06.660 ,4,1,0.,24.0,0.,24.0
1979-08-03 06:01:30.710 ,7,1,0.,24.0,0.,24.0
1979-08-03 06:01:54.710 ,3,1,0.,24.0,0.,24.0
1979-08-03 06:02:18.710 ,0,1,0.,24.0,0.,24.0
1979-08-03 06:02:42.710 ,4,1,0.,24.0,0.,24.0
1979-08-03 06:03:06.710 ,7,1,0.,24.0,0.,24.0
1979-08-03 06:03:30.710 ,3,1,0.,24.0,0.,24.0
1979-08-03 06:03:54.710 ,0,1,0.,24.0,0.,24.0
1979-08-03 06:04:18.710 ,4,1,0.,24.0,0.,24.0
1979-08-03 06:04:42.710 ,7,1,0.,24.0,0.,24.0
1979-08-03 06:05:06.710 ,3,1,0.,24.0,0.,24.0
1979-08-03 06:05:30.710 ,0,1,0.,24.0,0.,24.0
1979-08-03 06:05:54.710 ,0,0,0.,24.0,0.,24.0
1979-08-03 06:06:18.700 ,0,0,0.,24.0,0.,24.0
1979-08-03 06:06:42.710 ,5,1,0.,24.0,0.,24.0
1979-08-03 06:07:06.710 ,5,0,0.,24.0,0.,24.0
1979-08-03 06:07:30.710 ,4,1,0.,24.0,0.,24.0
1979-08-03 06:07:54.710 ,4,0,0.,24.0,0.,24.0
1979-08-03 06:08:18.700 ,3,1,0.,24.0,0.,24.0
1979-08-03 06:08:42.710 ,3,0,0.,24.0,0.,24.0
1979-08-03 06:09:06.710 ,2,1,0.,24.0,0.,24.0
1979-08-03 06:09:30.710 ,2,0,0.,24.0,0.,24.0
1979-08-03 06:09:54.710 ,1,1,0.,24.0,0.,24.0
1979-08-03 06:10:18.710 ,1,0,0.,24.0,0.,24.0
1979-08-03 06:10:42.710 ,0,1,0.,24.0,0.,24.0
1979-08-03 06:11:06.710 ,0,0,0.,24.0,0.,24.0
1979-08-03 06:11:30.710 ,0,1,0.,24.0,0.,24.0
1979-08-03 06:11:54.710 ,0,0,0.,24.0,0.,24.0
1979-08-03 06:12:18.710 ,1,1,0.,24.0,0.,24.0
1979-08-03 06:12:42.710 ,1,0,0.,24.0,0.,24.0
1979-08-03 06:13:06.710 ,2,1,0.,24.0,0.,24.0
1979-08-03 06:13:30.710 ,2,0,0.,24.0,0.,24.0
1979-08-03 06:13:54.710 ,3,1,0.,24.0,0.,24.0
1979-08-03 06:14:18.710 ,3,0,0.,24.0,0.,24.0
1979-08-03 06:14:18.660 ,3,0,0.,24.0,0.,24.0
1979-08-03 06:14:42.710 ,4,1,0.,24.0,0.,24.0
1979-08-03 06:15:06.710 ,4,0,0.,24.0,0.,24.0
1979-08-03 06:15:30.710 ,5,1,0.,24.0,0.,24.0
1979-08-03 06:15:54.710 ,5,0,0.,24.0,0.,24.0
1979-08-03 06:16:18.710 ,6,1,0.,24.0,0.,24.0
1979-08-03 06:16:42.710 ,6,0,0.,24.0,0.,24.0
1979-08-03 06:17:06.700 ,7,1,0.,24.0,0.,24.0
1979-08-03 06:17:30.710 ,7,0,0.,24.0,0.,24.0
1979-08-03 06:17:54.710 ,7,1,0.,24.0,0.,24.0
1979-08-03 06:18:18.710 ,7,0,0.,24.0,0.,24.0
1979-08-03 06:18:42.710 ,6,1,0.,24.0,0.,24.0
1979-08-03 06:19:06.710 ,6,0,0.,24.0,0.,24.0
1979-08-03 06:19:30.710 ,5,1,0.,24.0,0.,24.0
1979-08-03 06:19:54.710 ,5,0,0.,24.0,0.,24.0
1979-08-03 06:20:18.710 ,4,1,0.,24.0,0.,24.0
1979-08-03 06:20:42.710 ,4,0,0.,24.0,0.,24.0
1979-08-03 06:21:06.660 ,3,1,0.,24.0,0.,24.0
1979-08-03 06:21:30.660 ,3,0,0.,24.0,0.,24.0
1979-08-03 06:21:54.710 ,2,1,0.,24.0,0.,24.0
1979-08-03 06:22:18.710 ,2,0,0.,24.0,0.,24.0
1979-08-03 06:22:42.710 ,1,1,0.,24.0,0.,24.0
1979-08-03 06:23:06.710 ,1,0,0.,24.0,0.,24.0
1979-08-03 06:23:30.710 ,0,1,0.,24.0,0.,24.0
1979-08-03 06:23:54.710 ,0,0,0.,24.0,0.,24.0
1979-08-03 06:24:18.710 ,0,1,0.,24.0,0.,24.0
1979-08-03 06:24:42.710 ,0,0,0.,24.0,0.,24.0
1979-08-03 06:25:06.700 ,1,1,0.,24.0,0.,24.0
1979-08-03 06:25:30.700 ,1,0,0.,24.0,0.,24.0
1979-08-03 06:25:54.700 ,2,1,0.,24.0,0.,24.0
1979-08-03 06:26:18.660 ,2,0,0.,24.0,0.,24.0
1979-08-03 06:26:42.700 ,3,1,0.,24.0,0.,24.0
1979-08-03 06:27:06.700 ,3,0,0.,24.0,0.,24.0
1979-08-03 06:27:30.700 ,4,1,0.,24.0,0.,24.0
1979-08-03 06:27:54.700 ,4,0,0.,24.0,0.,24.0
1979-08-03 06:28:18.700 ,5,1,0.,24.0,0.,24.0
1979-08-03 06:28:42.700 ,5,0,0.,24.0,0.,24.0
1979-08-03 06:29:06.700 ,6,1,0.,24.0,0.,24.0
1979-08-03 06:29:30.700 ,6,0,0.,24.0,0.,24.0
1979-08-03 06:29:54.700 ,7,1,0.,24.0,0.,24.0
1979-08-03 06:30:18.700 ,7,0,0.,24.0,0.,24.0
1979-08-03 06:30:42.700 ,7,1,0.,24.0,0.,24.0
1979-08-03 06:31:06.700 ,7,0,0.,24.0,0.,24.0
1979-08-03 06:31:30.700 ,6,1,0.,24.0,0.,24.0
1979-08-03 06:31:54.700 ,6,0,0.,24.0,0.,24.0
1979-08-03 06:32:18.700 ,5,1,0.,24.0,0.,24.0
1979-08-03 06:32:42.700 ,5,0,0.,24.0,0.,24.0
1979-08-03 06:33:06.700 ,4,1,0.,24.0,0.,24.0
1979-08-03 06:33:30.700 ,4,0,0.,24.0,0.,24.0
1979-08-03 06:33:54.700 ,3,1,0.,24.0,0.,24.0
1979-08-03 06:34:18.700 ,3,0,0.,24.0,0.,24.0
1979-08-03 06:34:42.700 ,2,1,0.,24.0,0.,24.0
1979-08-03 06:35:06.700 ,2,0,0.,24.0,0.,24.0
1979-08-03 06:35:30.700 ,1,1,0.,24.0,0.,24.0
1979-08-03 06:35:54.700 ,1,0,0.,24.0,0.,24.0
1979-08-03 06:36:18.700 ,0,1,0.,24.0,0.,24.0
1979-08-03 06:36:42.700 ,0,0,0.,24.0,0.,24.0
1979-08-03 06:37:06.700 ,0,1,0.,24.0,0.,24.0
1979-08-03 06:37:30.700 ,0,0,0.,24.0,0.,24.0
1979-08-03 06:37:54.660 ,1,1,0.,24.0,0.,24.0
1979-08-03 06:38:18.700 ,0,0,0.,24.0,0.,24.0
1979-08-03 06:38:42.700 ,2,1,0.,24.0,0.,24.0
1979-08-03 06:39:06.700 ,2,0,0.,24.0,0.,24.0
1979-08-03 06:39:30.700 ,3,1,0.,24.0,0.,24.0
1979-08-03 06:39:54.700 ,3,0,0.,24.0,0.,24.0
1979-08-03 06:40:18.700 ,4,1,0.,24.0,0.,24.0
1979-08-03 06:40:42.700 ,4,0,0.,24.0,0.,24.0
1979-08-03 06:41:06.700 ,5,1,0.,24.0,0.,24.0
1979-08-03 06:41:30.700 ,5,0,0.,24.0,0.,24.0
1979-08-03 06:41:54.700 ,6,1,0.,24.0,0.,24.0
1979-08-03 06:42:18.660 ,6,0,0.,24.0,0.,24.0
1979-08-03 06:42:42.700 ,7,0,0.,24.0,0.,24.0
1979-08-03 06:43:06.700 ,7,0,0.,24.0,0.,24.0
1979-08-03 06:43:30.700 ,3,1,0.,24.0,0.,24.0
1979-08-03 06:43:54.700 ,0,1,0.,24.0,0.,24.0
1979-08-03 06:44:18.700 ,4,1,0.,24.0,0.,24.0
1979-08-03 06:44:42.700 ,7,1,0.,24.0,0.,24.0
1979-08-03 06:45:06.700 ,3,1,0.,24.0,0.,24.0
1979-08-03 06:45:30.700 ,0,1,0.,24.0,0.,24.0
1979-08-03 06:45:54.700 ,4,1,0.,24.0,0.,24.0
1979-08-03 06:46:18.700 ,7,1,0.,24.0,0.,24.0
1979-08-03 06:46:42.700 ,3,1,0.,24.0,0.,24.0
1979-08-03 06:47:06.700 ,0,1,0.,24.0,0.,24.0
1979-08-03 06:47:30.700 ,4,1,0.,24.0,0.,24.0
1979-08-03 06:47:54.700 ,7,1,0.,24.0,0.,24.0
1979-08-03 06:48:18.700 ,3,1,0.,24.0,0.,24.0
1979-08-03 06:48:42.700 ,0,1,0.,24.0,0.,24.0
1979-08-03 06:49:06.700 ,4,1,0.,24.0,0.,24.0
1979-08-03 06:49:30.700 ,7,1,0.,24.0,0.,24.0
1979-08-03 06:49:54.700 ,3,1,0.,24.0,0.,24.0
1979-08-03 06:50:18.700 ,0,1,0.,24.0,0.,24.0
1979-08-03 06:50:42.700 ,4,1,0.,24.0,0.,24.0
1979-08-03 06:51:06.700 ,7,1,0.,24.0,0.,24.0
1979-08-03 06:51:30.700 ,3,1,0.,24.0,0.,24.0
1979-08-03 06:51:54.700 ,0,1,0.,24.0,0.,24.0
1979-08-03 06:52:18.700 ,4,1,0.,24.0,0.,24.0
1979-08-03 06:52:42.700 ,7,1,0.,24.0,0.,24.0
1979-08-03 06:53:06.700 ,3,1,0.,24.0,0.,24.0
1979-08-03 06:53:30.700 ,0,1,0.,24.0,0.,24.0
1979-08-03 06:53:54.700 ,0,0,0.,24.0,0.,24.0
1979-08-03 06:54:18.700 ,0,0,0.,24.0,0.,24.0
1979-08-03 06:54:42.700 ,5,1,0.,24.0,0.,24.0
1979-08-03 06:55:06.700 ,5,0,0.,24.0,0.,24.0
1979-08-03 06:55:30.700 ,4,1,0.,24.0,0.,24.0
1979-08-03 06:55:54.700 ,4,0,0.,24.0,0.,24.0
1979-08-03 06:56:18.700 ,3,1,0.,24.0,0.,24.0
1979-08-03 06:56:42.700 ,3,0,0.,24.0,0.,24.0
1979-08-03 06:57:06.700 ,2,1,0.,24.0,0.,24.0
1979-08-03 06:57:30.700 ,2,0,0.,24.0,0.,24.0
1979-08-03 06:57:54.700 ,1,1,0.,24.0,0.,24.0
1979-08-03 06:58:18.700 ,1,0,0.,24.0,0.,24.0
1979-08-03 06:58:42.700 ,0,1,0.,24.0,0.,24.0
1979-08-03 06:59:06.700 ,0,0,0.,24.0,0.,24.0
1979-08-03 06:59:30.700 ,0,1,0.,24.0,0.,24.0
1979-08-03 06:59:54.700 ,0,0,0.,24.0,0.,24.0
1979-08-03 07:00:18.700 ,1,1,0.,24.0,0.,24.0
1979-08-03 07:00:42.700 ,1,0,0.,24.0,0.,24.0
1979-08-03 07:01:06.660 ,2,1,0.,24.0,0.,24.0
1979-08-03 07:01:30.660 ,2,0,0.,24.0,0.,24.0
1979-08-03 07:01:54.660 ,3,1,0.,24.0,0.,24.0
1979-08-03 07:02:18.660 ,3,0,0.,24.0,0.,24.0
1979-08-03 07:02:42.660 ,4,1,0.,24.0,0.,24.0
1979-08-03 07:03:06.700 ,4,0,0.,24.0,0.,24.0
1979-08-03 07:03:30.700 ,5,1,0.,24.0,0.,24.0
1979-08-03 07:03:54.700 ,5,0,0.,24.0,0.,24.0
1979-08-03 07:04:18.700 ,6,1,0.,24.0,0.,24.0
1979-08-03 07:04:42.700 ,6,0,0.,24.0,0.,24.0
1979-08-03 07:05:06.700 ,7,1,0.,24.0,0.,24.0
1979-08-03 07:05:30.700 ,7,0,0.,24.0,0.,24.0
1979-08-03 07:05:54.700 ,7,1,0.,24.0,0.,24.0
1979-08-03 07:06:18.700 ,7,0,0.,24.0,0.,24.0
1979-08-03 07:06:42.700 ,6,1,0.,24.0,0.,24.0
1979-08-03 07:07:06.700 ,6,0,0.,24.0,0.,24.0
1979-08-03 07:07:30.700 ,5,1,0.,24.0,0.,24.0
1979-08-03 07:07:54.700 ,5,0,0.,24.0,0.,24.0
1979-08-03 07:08:18.700 ,4,1,0.,24.0,0.,24.0
1979-08-03 07:08:42.700 ,4,0,0.,24.0,0.,24.0
1979-08-03 07:09:06.700 ,3,1,0.,24.0,0.,24.0
1979-08-03 07:09:30.700 ,3,0,0.,24.0,0.,24.0
1979-08-03 07:09:54.700 ,2,1,0.,24.0,0.,24.0
1979-08-03 07:10:18.660 ,2,0,0.,24.0,0.,24.0
1979-08-03 07:10:42.700 ,1,1,1.,24.0,0.,24.0
1979-08-03 07:11:06.700 ,1,0,0.,24.0,0.,24.0
1979-08-03 07:11:30.700 ,0,1,0.,24.0,0.,24.0
1979-08-03 07:11:54.700 ,0,0,0.,24.0,0.,24.0
1979-08-03 07:12:18.700 ,0,1,0.,24.0,0.,24.0
1979-08-03 07:12:42.700 ,0,0,0.,24.0,0.,24.0
1979-08-03 07:13:06.700 ,1,1,0.,24.0,0.,24.0
1979-08-03 07:13:30.700 ,1,0,0.,24.0,0.,24.0
1979-08-03 07:13:54.700 ,2,1,0.,24.0,0.,24.0
1979-08-03 07:14:18.700 ,2,0,0.,24.0,0.,24.0
1979-08-03 07:14:42.700 ,3,1,0.,24.0,0.,24.0
1979-08-03 07:15:06.700 ,3,0,0.,24.0,0.,24.0
1979-08-03 07:15:30.700 ,4,1,0.,24.0,0.,24.0
1979-08-03 07:15:54.700 ,4,0,0.,24.0,0.,24.0
1979-08-03 07:16:18.700 ,5,1,0.,24.0,0.,24.0
1979-08-03 07:16:42.700 ,5,0,0.,24.0,0.,24.0
1979-08-03 07:17:06.700 ,6,1,0.,24.0,0.,24.0
1979-08-03 07:17:30.700 ,6,0,0.,24.0,0.,24.0
1979-08-03 07:17:54.700 ,7,1,0.,24.0,0.,24.0
1979-08-03 07:18:18.700 ,7,0,0.,24.0,0.,24.0
1979-08-03 07:18:42.700 ,7,1,0.,24.0,0.,24.0
1979-08-03 07:19:06.700 ,7,0,0.,24.0,0.,24.0
1979-08-03 07:19:30.700 ,6,1,0.,24.0,0.,24.0
1979-08-03 07:19:54.700 ,6,0,0.,24.0,0.,24.0
1979-08-03 07:20:18.700 ,5,1,0.,24.0,0.,24.0
1979-08-03 07:20:42.700 ,5,0,0.,24.0,0.,24.0
1979-08-03 07:21:06.700 ,4,1,0.,24.0,0.,24.0
1979-08-03 07:21:30.700 ,4,0,0.,24.0,0.,24.0
1979-08-03 07:21:54.700 ,3,1,0.,24.0,0.,24.0
1979-08-03 07:22:18.700 ,3,0,0.,24.0,0.,24.0
1979-08-03 07:22:42.700 ,2,1,0.,24.0,0.,24.0
1979-08-03 07:23:06.700 ,2,0,0.,24.0,0.,24.0
1979-08-03 07:23:30.700 ,1,1,0.,24.0,0.,24.0
1979-08-03 07:23:54.700 ,1,0,0.,24.0,0.,24.0
1979-08-03 07:24:18.700 ,0,1,0.,24.0,0.,24.0
1979-08-03 07:24:42.700 ,0,0,0.,24.0,0.,24.0
1979-08-03 07:25:06.700 ,0,1,0.,24.0,0.,24.0
1979-08-03 07:25:30.700 ,0,0,0.,24.0,0.,24.0
1979-08-03 07:25:54.700 ,1,1,0.,24.0,0.,24.0
1979-08-03 07:26:18.700 ,1,0,0.,24.0,0.,24.0
1979-08-03 07:26:42.700 ,2,1,0.,24.0,0.,24.0
1979-08-03 07:27:06.700 ,2,0,0.,24.0,0.,24.0
1979-08-03 07:27:30.700 ,3,1,0.,24.0,0.,24.0
1979-08-03 07:27:54.700 ,3,0,0.,24.0,0.,24.0
1979-08-03 07:28:18.700 ,4,1,0.,24.0,0.,24.0
1979-08-03 07:28:42.700 ,4,0,0.,24.0,0.,24.0
1979-08-03 07:29:06.700 ,5,1,0.,24.0,0.,24.0
1979-08-03 07:29:30.700 ,5,0,0.,24.0,0.,24.0
1979-08-03 07:29:54.700 ,6,1,0.,24.0,0.,24.0
1979-08-03 07:30:18.700 ,6,0,0.,24.0,0.,24.0
1979-08-03 07:30:42.700 ,7,0,0.,24.0,0.,24.0
1979-08-03 07:31:06.700 ,7,0,0.,24.0,0.,24.0
1979-08-03 07:31:30.700 ,3,1,0.,24.0,0.,24.0
1979-08-03 07:31:54.700 ,0,1,0.,24.0,0.,24.0
1979-08-03 07:32:18.700 ,4,1,0.,24.0,0.,24.0
1979-08-03 07:32:42.700 ,7,1,0.,24.0,0.,24.0
1979-08-03 07:33:06.700 ,3,1,0.,24.0,0.,24.0
1979-08-03 07:33:30.700 ,0,1,0.,24.0,0.,24.0
1979-08-03 07:33:54.700 ,4,1,0.,24.0,0.,24.0
1979-08-03 07:34:18.700 ,7,1,0.,24.0,0.,24.0
1979-08-03 07:34:42.700 ,3,1,0.,24.0,0.,24.0
1979-08-03 07:35:06.700 ,0,1,0.,24.0,0.,24.0
1979-08-03 07:35:30.700 ,4,1,0.,24.0,0.,24.0
1979-08-03 07:35:54.700 ,7,1,0.,24.0,0.,24.0
1979-08-03 07:36:18.700 ,3,1,0.,24.0,0.,24.0
1979-08-03 07:36:42.700 ,0,1,0.,24.0,0.,24.0
1979-08-03 07:37:06.700 ,4,1,0.,24.0,0.,24.0
1979-08-03 07:37:30.700 ,7,1,0.,24.0,0.,24.0
1979-08-03 07:37:54.700 ,3,1,0.,24.0,0.,24.0
1979-08-03 07:38:18.700 ,0,1,0.,24.0,0.,24.0
1979-08-03 07:38:42.700 ,4,1,0.,24.0,0.,24.0
1979-08-03 07:39:06.700 ,7,1,0.,24.0,0.,24.0
1979-08-03 07:39:30.700 ,3,1,0.,24.0,0.,24.0
1979-08-03 07:39:54.700 ,0,1,0.,24.0,0.,24.0
1979-08-03 07:40:18.700 ,4,1,0.,24.0,0.,24.0
1979-08-03 07:40:42.700 ,7,1,0.,24.0,0.,24.0
1979-08-03 07:41:06.700 ,3,1,0.,24.0,0.,24.0
1979-08-03 07:41:30.700 ,0,1,0.,24.0,0.,24.0
1979-08-03 07:41:54.700 ,0,0,0.,24.0,0.,24.0
1979-08-03 07:42:18.700 ,0,0,0.,24.0,0.,24.0
1979-08-03 07:42:42.660 ,5,1,0.,24.0,0.,24.0
1979-08-03 07:43:06.660 ,5,0,0.,24.0,0.,24.0
1979-08-03 07:43:30.660 ,4,1,0.,24.0,0.,24.0
1979-08-03 07:43:54.660 ,4,0,0.,24.0,0.,24.0
1979-08-03 07:44:18.650 ,3,1,0.,24.0,0.,24.0
1979-08-03 07:44:42.650 ,3,0,0.,24.0,0.,24.0
1979-08-03 07:45:06.650 ,2,1,0.,24.0,0.,24.0
1979-08-03 07:45:30.650 ,2,0,0.,24.0,0.,24.0
1979-08-03 07:45:54.650 ,1,1,0.,24.0,0.,24.0
1979-08-03 07:46:18.650 ,1,0,0.,24.0,0.,24.0
1979-08-03 07:46:42.650 ,0,1,0.,24.0,0.,24.0
1979-08-03 07:47:06.650 ,0,0,0.,24.0,0.,24.0
1979-08-03 07:47:30.650 ,0,1,0.,24.0,0.,24.0
1979-08-03 07:47:54.650 ,0,0,0.,24.0,0.,24.0
1979-08-03 07:48:18.650 ,1,1,0.,24.0,0.,24.0
1979-08-03 07:48:42.650 ,1,0,0.,24.0,0.,24.0
1979-08-03 07:49:06.650 ,2,1,0.,24.0,0.,24.0
1979-08-03 07:49:30.650 ,2,0,0.,24.0,0.,24.0
1979-08-03 07:49:54.650 ,3,1,0.,24.0,0.,24.0
1979-08-03 07:50:18.650 ,3,0,0.,24.0,0.,24.0
1979-08-03 07:50:42.650 ,4,1,0.,24.0,0.,24.0
1979-08-03 07:51:06.650 ,4,0,0.,24.0,0.,24.0
1979-08-03 07:51:30.650 ,5,1,0.,24.0,0.,24.0
1979-08-03 07:51:54.650 ,5,0,0.,24.0,0.,24.0
1979-08-03 07:52:18.650 ,6,1,0.,24.0,0.,24.0
1979-08-03 07:52:42.650 ,6,0,0.,24.0,0.,24.0
1979-08-03 07:53:06.650 ,7,1,0.,24.0,0.,24.0
1979-08-03 07:53:30.650 ,7,0,0.,24.0,0.,24.0
1979-08-03 07:53:54.650 ,7,1,0.,24.0,0.,24.0
1979-08-03 07:54:18.650 ,7,0,0.,24.0,0.,24.0
1979-08-03 07:54:42.650 ,6,1,0.,24.0,0.,24.0
1979-08-03 07:55:06.650 ,6,0,0.,24.0,0.,24.0
1979-08-03 07:55:30.650 ,5,1,0.,24.0,0.,24.0
1979-08-03 07:55:54.650 ,5,0,0.,24.0,0.,24.0
1979-08-03 07:56:18.650 ,4,1,0.,24.0,0.,24.0
1979-08-03 07:56:42.650 ,4,0,0.,24.0,0.,24.0
1979-08-03 07:57:06.650 ,3,1,0.,24.0,0.,24.0
1979-08-03 07:57:30.650 ,3,0,0.,24.0,0.,24.0
1979-08-03 07:57:54.650 ,2,1,0.,24.0,0.,24.0
1979-08-03 07:58:18.650 ,2,0,0.,24.0,0.,24.0
1979-08-03 07:58:42.650 ,1,1,0.,24.0,0.,24.0
1979-08-03 07:59:06.650 ,1,0,0.,24.0,0.,24.0
1979-08-03 07:59:30.650 ,0,1,0.,24.0,0.,24.0
1979-08-03 07:59:54.650 ,0,0,0.,24.0,0.,24.0
1979-08-03 08:00:18.650 ,0,1,0.,24.0,0.,24.0
1979-08-03 08:00:42.660 ,0,0,0.,24.0,0.,24.0
1979-08-03 08:01:06.660 ,1,1,0.,24.0,0.,24.0
1979-08-03 08:01:30.660 ,1,0,0.,24.0,0.,24.0
1979-08-03 08:01:54.660 ,2,1,0.,24.0,0.,24.0
1979-08-03 08:02:18.650 ,2,0,0.,24.0,0.,24.0
1979-08-03 08:02:42.660 ,3,1,0.,24.0,0.,24.0
1979-08-03 08:03:06.660 ,3,0,0.,24.0,0.,24.0
1979-08-03 08:03:30.650 ,4,1,0.,24.0,0.,24.0
1979-08-03 08:03:54.650 ,4,0,0.,24.0,0.,24.0
1979-08-03 08:04:18.650 ,5,1,0.,24.0,0.,24.0
1979-08-03 08:04:42.650 ,5,0,0.,24.0,0.,24.0
1979-08-03 08:05:06.650 ,6,1,0.,24.0,0.,24.0
1979-08-03 08:05:30.650 ,6,0,0.,24.0,0.,24.0
1979-08-03 08:05:54.650 ,7,1,0.,24.0,0.,24.0
1979-08-03 08:06:18.650 ,7,0,0.,24.0,0.,24.0
1979-08-03 08:06:42.650 ,7,1,0.,24.0,0.,24.0
1979-08-03 08:07:06.650 ,7,0,0.,24.0,0.,24.0
1979-08-03 08:07:30.650 ,6,1,0.,24.0,0.,24.0
1979-08-03 08:07:54.650 ,6,0,0.,24.0,0.,24.0
1979-08-03 08:08:18.650 ,5,1,0.,24.0,0.,24.0
1979-08-03 08:08:42.650 ,5,0,0.,24.0,0.,24.0
1979-08-03 08:09:06.650 ,4,1,0.,24.0,0.,24.0
1979-08-03 08:09:30.650 ,4,0,0.,24.0,0.,24.0
1979-08-03 08:09:54.650 ,3,1,0.,24.0,0.,24.0
1979-08-03 08:10:18.650 ,3,0,0.,24.0,0.,24.0
1979-08-03 08:10:42.650 ,2,1,0.,24.0,0.,24.0
1979-08-03 08:11:06.650 ,2,0,0.,24.0,0.,24.0
1979-08-03 08:11:30.650 ,1,1,0.,24.0,0.,24.0
1979-08-03 08:11:54.650 ,1,0,0.,24.0,0.,24.0
1979-08-03 08:12:18.650 ,0,1,0.,24.0,0.,24.0
1979-08-03 08:12:42.650 ,0,0,0.,24.0,0.,24.0
1979-08-03 08:13:06.650 ,0,1,0.,24.0,0.,24.0
1979-08-03 08:13:30.650 ,0,0,0.,24.0,0.,24.0
1979-08-03 08:13:54.650 ,1,1,0.,24.0,0.,24.0
1979-08-03 08:14:18.650 ,1,0,0.,24.0,0.,24.0
1979-08-03 08:14:42.650 ,2,1,0.,24.0,0.,24.0
1979-08-03 08:15:06.650 ,2,0,0.,24.0,0.,24.0
1979-08-03 08:15:30.650 ,3,1,0.,24.0,0.,24.0
1979-08-03 08:15:54.650 ,3,0,0.,24.0,0.,24.0
1979-08-03 08:16:18.650 ,4,1,0.,24.0,0.,24.0
1979-08-03 08:16:42.650 ,4,0,0.,24.0,0.,24.0
1979-08-03 08:17:06.650 ,5,1,0.,24.0,0.,24.0
1979-08-03 08:17:30.650 ,5,0,0.,24.0,0.,24.0
1979-08-03 08:17:54.650 ,6,1,0.,24.0,0.,24.0
1979-08-03 08:18:18.650 ,6,0,0.,24.0,0.,24.0
1979-08-03 08:18:42.650 ,7,0,0.,24.0,0.,24.0
1979-08-03 08:19:06.650 ,7,0,0.,24.0,0.,24.0
1979-08-03 08:19:30.650 ,3,1,0.,24.0,0.,24.0
1979-08-03 08:19:54.650 ,0,1,0.,24.0,0.,24.0
1979-08-03 08:20:18.650 ,4,1,0.,24.0,0.,24.0
1979-08-03 08:20:42.650 ,7,1,1.,24.0,0.,24.0
1979-08-03 08:21:06.650 ,3,1,0.,24.0,0.,24.0
1979-08-03 08:21:30.650 ,0,1,0.,24.0,0.,24.0
1979-08-03 08:21:54.650 ,4,1,0.,24.0,0.,24.0
1979-08-03 08:22:18.650 ,7,1,0.,24.0,0.,24.0
1979-08-03 08:22:42.650 ,3,1,0.,24.0,0.,24.0
1979-08-03 08:23:06.650 ,0,1,0.,24.0,0.,24.0
1979-08-03 08:23:30.650 ,4,1,0.,24.0,0.,24.0
1979-08-03 08:23:54.650 ,7,1,0.,24.0,0.,24.0
1979-08-03 08:24:18.650 ,3,1,0.,24.0,0.,24.0
1979-08-03 08:24:42.650 ,0,1,0.,24.0,0.,24.0
1979-08-03 08:25:06.650 ,4,1,0.,24.0,0.,24.0
1979-08-03 08:25:30.650 ,7,1,0.,24.0,0.,24.0
1979-08-03 08:25:54.650 ,3,1,0.,24.0,0.,24.0
1979-08-03 08:26:18.650 ,0,1,0.,24.0,0.,24.0
1979-08-03 08:26:42.650 ,4,1,0.,24.0,0.,24.0
1979-08-03 08:27:06.650 ,7,1,0.,24.0,0.,24.0
1979-08-03 08:27:30.650 ,3,1,0.,24.0,0.,24.0
1979-08-03 08:27:54.650 ,0,1,0.,24.0,0.,24.0
1979-08-03 08:28:18.650 ,4,1,0.,24.0,0.,24.0
1979-08-03 08:28:42.650 ,7,1,0.,24.0,0.,24.0
1979-08-03 08:29:06.650 ,3,1,0.,24.0,0.,24.0
1979-08-03 08:29:30.650 ,0,1,0.,24.0,0.,24.0
1979-08-03 08:29:54.650 ,0,0,0.,24.0,0.,24.0
1979-08-03 08:30:18.650 ,0,0,0.,24.0,0.,24.0
1979-08-03 08:30:42.650 ,5,1,0.,24.0,0.,24.0
1979-08-03 08:31:06.650 ,5,0,0.,24.0,0.,24.0
1979-08-03 08:31:30.650 ,4,1,0.,24.0,0.,24.0
1979-08-03 08:31:54.650 ,4,0,0.,24.0,0.,24.0
1979-08-03 08:32:18.650 ,3,1,0.,24.0,0.,24.0
1979-08-03 08:32:42.650 ,3,0,0.,24.0,0.,24.0
1979-08-03 08:33:06.650 ,2,1,0.,24.0,0.,24.0
1979-08-03 08:33:30.650 ,2,0,0.,24.0,0.,24.0
1979-08-03 08:33:54.650 ,1,1,0.,24.0,0.,24.0
1979-08-03 08:34:18.650 ,1,0,0.,24.0,0.,24.0
1979-08-03 08:34:42.650 ,0,1,0.,24.0,0.,24.0
1979-08-03 08:35:06.650 ,0,0,0.,24.0,0.,24.0
1979-08-03 08:35:30.650 ,0,1,0.,24.0,0.,24.0
1979-08-03 08:35:54.650 ,0,0,0.,24.0,0.,24.0
1979-08-03 08:36:18.650 ,1,1,0.,24.0,0.,24.0
1979-08-03 08:36:42.650 ,1,0,0.,24.0,0.,24.0
1979-08-03 08:37:06.650 ,2,1,0.,24.0,0.,24.0
1979-08-03 08:37:30.650 ,2,0,0.,24.0,0.,24.0
1979-08-03 08:37:54.650 ,3,1,0.,24.0,0.,24.0
1979-08-03 08:38:18.650 ,3,0,0.,24.0,0.,24.0
1979-08-03 08:38:42.650 ,4,1,0.,24.0,0.,24.0
1979-08-03 08:39:06.650 ,4,0,0.,24.0,0.,24.0
1979-08-03 08:39:30.650 ,5,1,0.,24.0,0.,24.0
1979-08-03 08:39:54.650 ,5,0,0.,24.0,0.,24.0
1979-08-03 08:40:18.650 ,6,1,0.,24.0,0.,24.0
1979-08-03 08:40:42.650 ,6,0,0.,24.0,0.,24.0
1979-08-03 08:41:06.650 ,7,1,0.,24.0,0.,24.0
1979-08-03 08:41:30.650 ,7,0,0.,24.0,0.,24.0
1979-08-03 08:41:54.650 ,7,1,0.,24.0,0.,24.0
1979-08-03 08:42:18.650 ,0,0,,0,,0
1979-08-03 08:44:15.650 ,0,0,0.,24.0,0.,24.0
1979-08-03 08:44:18.650 ,4,1,0.,24.0,0.,24.0
1979-08-03 08:44:42.650 ,4,0,0.,24.0,0.,24.0
1979-08-03 08:45:06.650 ,3,1,0.,24.0,0.,24.0
1979-08-03 08:45:30.650 ,3,0,0.,24.0,0.,24.0
1979-08-03 08:45:54.650 ,2,1,0.,24.0,0.,24.0
1979-08-03 08:46:18.650 ,2,0,0.,24.0,0.,24.0
1979-08-03 08:46:42.650 ,1,1,0.,24.0,0.,24.0
1979-08-03 08:47:06.650 ,1,0,0.,24.0,0.,24.0
1979-08-03 08:47:30.650 ,0,1,0.,24.0,0.,24.0
1979-08-03 08:47:54.650 ,0,0,0.,24.0,0.,24.0
1979-08-03 08:48:18.650 ,0,1,0.,24.0,0.,24.0
1979-08-03 08:48:42.650 ,0,0,0.,24.0,0.,24.0
1979-08-03 08:49:06.650 ,1,1,0.,24.0,0.,24.0
1979-08-03 08:49:30.650 ,1,0,0.,24.0,0.,24.0
1979-08-03 08:49:54.650 ,2,1,0.,24.0,0.,24.0
1979-08-03 08:50:18.650 ,2,0,0.,24.0,0.,24.0
1979-08-03 08:50:42.650 ,3,1,0.,24.0,0.,24.0
1979-08-03 08:51:06.650 ,3,0,0.,24.0,0.,24.0
1979-08-03 08:51:30.650 ,4,1,0.,24.0,0.,24.0
1979-08-03 08:51:54.650 ,4,0,0.,24.0,0.,24.0
1979-08-03 08:52:18.650 ,5,1,0.,24.0,0.,24.0
1979-08-03 08:52:42.650 ,5,0,0.,24.0,0.,24.0
1979-08-03 08:53:06.650 ,6,1,0.,24.0,0.,24.0
1979-08-03 08:53:30.650 ,6,0,0.,24.0,0.,24.0
1979-08-03 08:53:54.650 ,7,1,0.,24.0,0.,24.0
1979-08-03 08:54:18.650 ,7,0,0.,24.0,0.,24.0
1979-08-03 08:54:42.650 ,7,1,0.,24.0,0.,24.0
1979-08-03 08:55:06.650 ,7,0,0.,24.0,0.,24.0
1979-08-03 08:55:30.650 ,6,1,0.,24.0,0.,24.0
1979-08-03 08:55:54.650 ,6,0,0.,24.0,0.,24.0
1979-08-03 08:56:18.650 ,5,1,0.,24.0,0.,24.0
1979-08-03 08:56:42.650 ,5,0,0.,24.0,0.,24.0
1979-08-03 08:57:06.650 ,4,1,0.,24.0,0.,24.0
1979-08-03 08:57:30.650 ,4,0,0.,24.0,0.,24.0
1979-08-03 08:57:54.650 ,3,1,0.,24.0,0.,24.0
1979-08-03 08:58:18.650 ,3,0,1.,24.0,0.,24.0
1979-08-03 08:58:42.650 ,2,1,0.,24.0,0.,24.0
1979-08-03 08:59:06.650 ,2,0,0.,24.0,0.,24.0
1979-08-03 08:59:30.650 ,1,1,0.,24.0,0.,24.0
1979-08-03 08:59:54.650 ,1,0,0.,24.0,0.,24.0
1979-08-03 09:00:18.650 ,0,1,0.,24.0,0.,24.0
